STARLINK-11415, 62592

Orbit data source: Space-Track

STARLINK-11415, 62592 is a payload satellite owned by SpaceX/Seattle (US) in LEO that was launched on Mon, 13 Jan 2025 UTC via an FALCON 9 launch vehicle from the Air Force Eastern Test Range (AFETR). Payload-class satellites include a variety of spacecraft equipped with specific instruments for various scientific and technological missions. These include communications satellites like Starlink; space stations such as the ISS; scientific satellites like the Hubble; Earth observation satellites from companies like Planet Labs, Umbra, and HawkEye 360; GPS; miniature CubeSats for education and research; and military/defense satellites.

Loading next visibility...
Identifier
62592, 2025-008F
Orbit
LEO
Last TLE update
7 hours ago
Origin
Manufacturer
SpaceX/Seattle
Mission
Operational Commercial Communications
Bus & Motor
STARLINK V2M, Unknown motor
Mass
730 kg wet, ~700 kg dry
Launch date (UTC)
2025-01-13 (6 months ago)
Launch vehicle
FALCON 9
Launch site
Air Force Eastern Test Range (AFETR)
Object type
Payload
Rocket body
Debris
Shape & HBR
Box + 2 Pan, 29 m
Radar Cross Section
36.964 m², Large (>1 m²)

Expand to show TLE details & history

TLE from 7 hours ago
0 STARLINK-11415
1 62592U 25008F   25182.11280286  .00234888  00000-0  17834-2 0  9993
2 62592  43.0002 202.9517 0003560 292.0397  68.0092 15.70828290 27654
Epoch: 2025-07-01T02:42Z
TLE epoch observation values (Epoch: 2025-07-01T02:42:26.167Z)
Latitude
-0.00002°
Longitude
-117.07028°
Altitude
355.403 km
Speed
7.698 km/s
True Right ascension
13h 31m 48s
True Declination
0° 00' 00"
Sunlit
Object was in daylight at epoch
Visualization orbit readout
Latitude
-27.84159°
Longitude
95.43648°
Altitude
362.538 km
Speed
7.693 km/s
Apparent Right ascension
06h 12m 02s
Apparent Declination
-41° 56' 54"
Sunlit
Object is in daylight
Visualization observer readout
Local Sidereal Time
21:23:41
Azimuth
109.256° ESE
Elevation
-54.222°
Doppler factor
1
Orbital elements
Apogee altitude
360.908 km
Perigee altitude
356.112 km
Semi-major axis
6,736.647 km
Eccentricity
0.00036
Inclination
43.0002°
RAAN
202.9517°
Arg. of periapsis
292.0397°
True anomaly
Unknown
Mean anomaly
68.0092°
Eccentric anomaly
Unknown
Mean motion
3.92534 °/min
Orbital period
91.71 mins
BSTAR
0.0017834
Loading maneuver chart data...
Loading SW <> Apogee altitude chart data...
Loading historical data...
Loading historical data...
Loading historical data...
Loading historical data...
Loading historical data...
Loading historical data...
Loading historical data...

STARLINK-11415 Visibility forecast

Observer location: undefined°, undefined°

Span
Click to sort rows by Start time (UTC) header in descending order
Start Az.
Max El. time (UTC)
Max El. Az.
Max El.
End time (UTC)
End Az.
4 mins2025-07-01 10:49:20.802Z266.403° W2025-07-01 10:51:20.802Z224.41° SW21.011°2025-07-01 10:53:20.802Z167.38° S
4 mins2025-07-02 06:29:20.802Z287.816° WNW2025-07-02 06:30:20.802Z330.095° NNW37.115°2025-07-02 06:33:20.802Z68.345° E
4 mins2025-07-02 08:05:20.802Z301.488° NW2025-07-02 08:07:20.802Z41.652° NE34.897°2025-07-02 08:09:20.802Z83.415° E
4 mins2025-07-02 09:41:20.802Z271.738° WNW2025-07-02 09:43:20.802Z178.091° S35.272°2025-07-02 09:45:20.802Z131.722° SE
|